Time,TemperatureF,DewpointF,PressureIn,WindDirection,WindDirectionDegrees,WindSpeedMPH,WindSpeedGustMPH,Humidity,HourlyPrecipIn,Conditions,Clouds,dailyrainin,SoftwareType,DateUTC
2013-01-22 00:00:00,6.6,-3.0,30.14,WNW,302,5.0,-999.0,70,-99.99,,,0.00,ADS-WS1 bash script,2013-01-22 05:00:00,
2013-01-22 00:05:00,6.4,-4.0,30.13,NW,307,7.0,-999.0,71,-99.99,,,0.00,ADS-WS1 bash script,2013-01-22 05:05:00,
2013-01-22 00:10:00,6.3,-4.0,30.13,WNW,299,6.0,-999.0,71,-99.99,,,0.00,ADS-WS1 bash script,2013-01-22 05:10:00,
2013-01-22 00:15:00,6.3,-4.0,30.14,NNW,330,4.0,-999.0,72,-99.99,,,0.00,ADS-WS1 bash script,2013-01-22 05:15:00,
2013-01-22 00:20:00,6.3,-3.0,30.14,WNW,285,2.0,-999.0,73,-99.99,,,0.00,ADS-WS1 bash script,2013-01-22 05:20:00,
2013-01-22 00:25:00,6.1,-4.0,30.14,NW,313,2.0,-999.0,72,-99.99,,,0.00,ADS-WS1 bash script,2013-01-22 05:25:00,
2013-01-22 00:30:00,6.1,-4.0,30.14,NW,304,3.0,-999.0,71,-99.99,,,0.00,ADS-WS1 bash script,2013-01-22 05:30:00,
2013-01-22 00:35:00,6.3,-4.0,30.14,NW,304,2.0,-999.0,72,-99.99,,,0.00,ADS-WS1 bash script,2013-01-22 05:35:00,
2013-01-22 00:40:00,6.1,-4.0,30.13,West,278,3.0,-999.0,71,-99.99,,,0.00,ADS-WS1 bash script,2013-01-22 05:40:00,
2013-01-22 00:45:00,5.9,-3.0,30.14,NNW,347,3.0,-999.0,73,-99.99,,,0.00,ADS-WS1 bash script,2013-01-22 05:45:00,
2013-01-22 00:50:00,5.7,-3.0,30.13,WNW,290,3.0,-999.0,74,-99.99,,,0.00,ADS-WS1 bash script,2013-01-22 05:50:00,
2013-01-22 00:55:00,5.5,-3.0,30.14,NW,320,5.0,-999.0,74,-99.99,,,0.00,ADS-WS1 bash script,2013-01-22 05:55:00,
2013-01-22 01:00:00,5.4,-4.0,30.13,WNW,299,4.0,-999.0,75,-99.99,,,0.00,ADS-WS1 bash script,2013-01-22 06:00:00,
2013-01-22 01:05:00,5.2,-4.0,30.13,NW,306,4.0,-999.0,73,-99.99,,,0.00,ADS-WS1 bash script,2013-01-22 06:05:00,
2013-01-22 01:10:00,5.2,-5.0,30.13,WNW,299,3.0,-999.0,72,-99.99,,,0.00,ADS-WS1 bash script,2013-01-22 06:10:00,
2013-01-22 01:20:00,5.0,-4.0,30.14,NNW,340,2.0,-999.0,74,-99.99,,,0.00,ADS-WS1 bash script,2013-01-22 06:20:00,
2013-01-22 01:30:00,4.8,-4.0,30.14,NW,324,4.0,-999.0,74,-99.99,,,0.00,ADS-WS1 bash script,2013-01-22 06:30:00,
2013-01-22 01:40:00,4.5,-5.0,30.15,NNW,341,5.0,-999.0,74,-99.99,,,0.00,ADS-WS1 bash script,2013-01-22 06:40:00,
2013-01-22 01:50:00,4.5,-5.0,30.15,NW,313,1.0,-999.0,74,-99.99,,,0.00,ADS-WS1 bash script,2013-01-22 06:50:00,
2013-01-22 01:55:00,4.3,-5.0,30.15,NW,319,2.0,-999.0,75,-99.99,,,0.00,ADS-WS1 bash script,2013-01-22 06:55:00,
2013-01-22 02:00:00,4.3,-5.0,30.15,NW,321,5.0,-999.0,75,-99.99,,,0.00,ADS-WS1 bash script,2013-01-22 07:00:00,
2013-01-22 02:05:00,4.6,-4.0,30.15,NNW,335,3.0,-999.0,75,-99.99,,,0.00,ADS-WS1 bash script,2013-01-22 07:05:00,
2013-01-22 02:10:00,4.8,-3.0,30.15,NNW,327,7.0,-999.0,77,-99.99,,,0.00,ADS-WS1 bash script,2013-01-22 07:10:00,
2013-01-22 02:15:00,4.8,-3.0,30.15,NW,313,3.0,-999.0,76,-99.99,,,0.00,ADS-WS1 bash script,2013-01-22 07:15:00,
2013-01-22 02:20:00,4.6,-3.0,30.16,NW,306,6.0,-999.0,76,-99.99,,,0.00,ADS-WS1 bash script,2013-01-22 07:20:00,
2013-01-22 02:25:00,4.5,-4.0,30.16,NW,319,3.0,-999.0,76,-99.99,,,0.00,ADS-WS1 bash script,2013-01-22 07:25:00,
2013-01-22 02:30:00,4.3,-5.0,30.16,WNW,302,5.0,-999.0,73,-99.99,,,0.00,ADS-WS1 bash script,2013-01-22 07:30:00,
2013-01-22 02:35:00,4.3,-6.0,30.16,WNW,303,2.0,-999.0,72,-99.99,,,0.00,ADS-WS1 bash script,2013-01-22 07:35:00,
2013-01-22 02:45:00,4.3,-7.0,30.16,NW,313,6.0,-999.0,67,-99.99,,,0.00,ADS-WS1 bash script,2013-01-22 07:45:00,
2013-01-22 02:50:00,4.3,-8.0,30.16,NW,319,6.0,-999.0,66,-99.99,,,0.00,ADS-WS1 bash script,2013-01-22 07:50:00,
2013-01-22 02:55:00,4.3,-8.0,30.17,NW,309,5.0,-999.0,65,-99.99,,,0.00,ADS-WS1 bash script,2013-01-22 07:55:00,
2013-01-22 03:00:00,4.1,-8.0,30.16,NW,313,5.0,-999.0,64,-99.99,,,0.00,ADS-WS1 bash script,2013-01-22 08:00:00,
2013-01-22 03:05:00,3.9,-8.0,30.17,NW,309,6.0,-999.0,65,-99.99,,,0.00,ADS-WS1 bash script,2013-01-22 08:05:00,
2013-01-22 03:10:00,3.7,-8.0,30.17,NW,319,3.0,-999.0,65,-99.99,,,0.00,ADS-WS1 bash script,2013-01-22 08:10:00,
2013-01-22 03:15:00,3.6,-8.0,30.17,WNW,283,9.0,-999.0,64,-99.99,,,0.00,ADS-WS1 bash script,2013-01-22 08:15:00,
2013-01-22 03:20:00,3.6,-8.0,30.17,NW,309,3.0,-999.0,65,-99.99,,,0.00,ADS-WS1 bash script,2013-01-22 08:20:00,
2013-01-22 03:25:00,3.6,-8.0,30.17,NNW,340,6.0,-999.0,65,-99.99,,,0.00,ADS-WS1 bash script,2013-01-22 08:25:00,
2013-01-22 03:35:00,3.4,-10.0,30.18,NW,313,4.0,-999.0,63,-99.99,,,0.00,ADS-WS1 bash script,2013-01-22 08:35:00,
2013-01-22 03:40:00,3.2,-10.0,30.19,NW,313,6.0,-999.0,62,-99.99,,,0.00,ADS-WS1 bash script,2013-01-22 08:40:00,
2013-01-22 03:45:00,3.2,-10.0,30.18,North,0,3.0,-999.0,62,-99.99,,,0.00,ADS-WS1 bash script,2013-01-22 08:45:00,
2013-01-22 03:55:00,2.8,-9.0,30.18,WNW,295,4.0,-999.0,64,-99.99,,,0.00,ADS-WS1 bash script,2013-01-22 08:55:00,
2013-01-22 04:00:00,2.8,-10.0,30.18,WNW,296,4.0,-999.0,63,-99.99,,,0.00,ADS-WS1 bash script,2013-01-22 09:00:00,
2013-01-22 04:10:00,2.7,-10.0,30.19,NW,313,9.0,-999.0,63,-99.99,,,0.00,ADS-WS1 bash script,2013-01-22 09:10:00,
2013-01-22 04:15:00,2.7,-10.0,30.19,NW,313,5.0,-999.0,62,-99.99,,,0.00,ADS-WS1 bash script,2013-01-22 09:15:00,
2013-01-22 04:20:00,2.7,-10.0,30.19,NW,324,3.0,-999.0,63,-99.99,,,0.00,ADS-WS1 bash script,2013-01-22 09:20:00,
2013-01-22 04:25:00,2.5,-10.0,30.19,North,0,2.0,-999.0,64,-99.99,,,0.00,ADS-WS1 bash script,2013-01-22 09:25:00,
2013-01-22 04:30:00,2.5,-10.0,30.19,WNW,290,8.0,-999.0,64,-99.99,,,0.00,ADS-WS1 bash script,2013-01-22 09:30:00,
2013-01-22 04:35:00,2.3,-11.0,30.19,West,268,3.0,-999.0,63,-99.99,,,0.00,ADS-WS1 bash script,2013-01-22 09:35:00,
2013-01-22 04:40:00,2.3,-10.0,30.20,NW,313,4.0,-999.0,65,-99.99,,,0.00,ADS-WS1 bash script,2013-01-22 09:40:00,
2013-01-22 04:45:00,2.1,-10.0,30.20,NW,313,4.0,-999.0,64,-99.99,,,0.00,ADS-WS1 bash script,2013-01-22 09:45:00,
2013-01-22 04:50:00,2.1,-10.0,30.20,West,268,3.0,-999.0,64,-99.99,,,0.00,ADS-WS1 bash script,2013-01-22 09:50:00,
2013-01-22 05:00:00,1.9,-10.0,30.20,NW,313,1.0,-999.0,66,-99.99,,,0.00,ADS-WS1 bash script,2013-01-22 10:00:00,
2013-01-22 05:05:00,1.9,-10.0,30.20,NW,313,6.0,-999.0,66,-99.99,,,0.00,ADS-WS1 bash script,2013-01-22 10:05:00,
2013-01-22 05:10:00,1.8,-10.0,30.20,North,0,4.0,-999.0,65,-99.99,,,0.00,ADS-WS1 bash script,2013-01-22 10:10:00,
2013-01-22 05:15:00,1.9,-10.0,30.21,NW,313,5.0,-999.0,64,-99.99,,,0.00,ADS-WS1 bash script,2013-01-22 10:15:00,
2013-01-22 05:20:00,1.8,-10.0,30.21,NNW,335,3.0,-999.0,66,-99.99,,,0.00,ADS-WS1 bash script,2013-01-22 10:20:00,
2013-01-22 05:25:00,1.4,-11.0,30.21,NW,313,1.0,-999.0,66,-99.99,,,0.00,ADS-WS1 bash script,2013-01-22 10:25:00,
2013-01-22 05:30:00,1.2,-11.0,30.22,NW,313,3.0,-999.0,66,-99.99,,,0.00,ADS-WS1 bash script,2013-01-22 10:30:00,
2013-01-22 05:35:00,1.0,-10.0,30.22,NW,320,1.0,-999.0,67,-99.99,,,0.00,ADS-WS1 bash script,2013-01-22 10:35:00,
2013-01-22 05:40:00,1.0,-10.0,30.22,WNW,302,2.0,-999.0,68,-99.99,,,0.00,ADS-WS1 bash script,2013-01-22 10:40:00,
2013-01-22 05:45:00,0.9,-10.0,30.22,North,350,4.0,-999.0,69,-99.99,,,0.00,ADS-WS1 bash script,2013-01-22 10:45:00,
2013-01-22 05:55:00,0.7,-10.0,30.23,NW,313,2.0,-999.0,67,-99.99,,,0.00,ADS-WS1 bash script,2013-01-22 10:55:00,
2013-01-22 06:00:00,0.9,-9.0,30.23,NW,313,2.0,-999.0,70,-99.99,,,0.00,ADS-WS1 bash script,2013-01-22 11:00:00,
2013-01-22 06:05:00,0.7,-9.0,30.23,NW,313,4.0,-999.0,70,-99.99,,,0.00,ADS-WS1 bash script,2013-01-22 11:05:00,
2013-01-22 06:10:00,0.7,-9.0,30.22,WNW,290,4.0,-999.0,70,-99.99,,,0.00,ADS-WS1 bash script,2013-01-22 11:10:00,
2013-01-22 06:15:00,0.7,-10.0,30.22,NW,313,3.0,-999.0,68,-99.99,,,0.00,ADS-WS1 bash script,2013-01-22 11:15:00,
2013-01-22 06:25:00,0.5,-11.0,30.24,NW,313,5.0,-999.0,68,-99.99,,,0.00,ADS-WS1 bash script,2013-01-22 11:25:00,
2013-01-22 06:30:00,0.5,-11.0,30.23,WNW,296,2.0,-999.0,67,-99.99,,,0.00,ADS-WS1 bash script,2013-01-22 11:30:00,
2013-01-22 06:40:00,0.5,-11.0,30.25,WNW,299,2.0,-999.0,68,-99.99,,,0.00,ADS-WS1 bash script,2013-01-22 11:40:00,
2013-01-22 06:45:00,0.3,-11.0,30.24,NW,313,6.0,-999.0,69,-99.99,,,0.00,ADS-WS1 bash script,2013-01-22 11:45:00,
2013-01-22 06:50:00,0.3,-10.0,30.24,West,268,1.0,-999.0,70,-99.99,,,0.00,ADS-WS1 bash script,2013-01-22 11:50:00,
2013-01-22 06:55:00,0.5,-10.0,30.25,WNW,290,3.0,-999.0,70,-99.99,,,0.00,ADS-WS1 bash script,2013-01-22 11:55:00,
2013-01-22 07:00:00,0.3,-10.0,30.25,West,268,2.0,-999.0,70,-99.99,,,0.00,ADS-WS1 bash script,2013-01-22 12:00:00,
2013-01-22 07:05:00,0.1,-10.0,30.26,West,273,1.0,-999.0,71,-99.99,,,0.00,ADS-WS1 bash script,2013-01-22 12:05:00,
2013-01-22 07:10:00,0.0,-11.0,30.25,West,279,5.0,-999.0,68,-99.99,,,0.00,ADS-WS1 bash script,2013-01-22 12:10:00,
2013-01-22 07:20:00,999.9,99.9,30.25,West,268,2.0,-999.0,71,-99.99,,,0.00,ADS-WS1 bash script,2013-01-22 12:20:00,
2013-01-22 07:25:00,0.0,-10.0,30.26,WNW,299,3.0,-999.0,71,-99.99,,,0.00,ADS-WS1 bash script,2013-01-22 12:25:00,
2013-01-22 07:30:00,0.0,-10.0,30.25,West,268,2.0,-999.0,70,-99.99,,,0.00,ADS-WS1 bash script,2013-01-22 12:30:00,
2013-01-22 07:35:00,0.0,-10.0,30.26,WSW,237,1.0,-999.0,70,-99.99,,,0.00,ADS-WS1 bash script,2013-01-22 12:35:00,
2013-01-22 07:45:00,999.9,99.9,30.26,West,268,2.0,-999.0,71,-99.99,,,0.00,ADS-WS1 bash script,2013-01-22 12:45:00,
2013-01-22 07:50:00,999.9,99.9,30.26,WNW,299,2.0,-999.0,73,-99.99,,,0.00,ADS-WS1 bash script,2013-01-22 12:50:00,
2013-01-22 07:55:00,999.9,99.9,30.27,West,268,2.0,-999.0,72,-99.99,,,0.00,ADS-WS1 bash script,2013-01-22 12:55:00,
2013-01-22 08:00:00,999.9,99.9,30.27,West,268,2.0,-999.0,73,-99.99,,,0.00,ADS-WS1 bash script,2013-01-22 13:00:00,
2013-01-22 08:05:00,999.9,99.9,30.26,West,268,4.0,-999.0,73,-99.99,,,0.00,ADS-WS1 bash script,2013-01-22 13:05:00,
2013-01-22 08:15:00,0.0,-10.0,30.27,NW,309,4.0,-999.0,71,-99.99,,,0.00,ADS-WS1 bash script,2013-01-22 13:15:00,
2013-01-22 08:20:00,0.1,-10.0,30.27,West,268,6.0,-999.0,71,-99.99,,,0.00,ADS-WS1 bash script,2013-01-22 13:20:00,
2013-01-22 08:25:00,0.5,-10.0,30.28,West,268,1.0,-999.0,70,-99.99,,,1.00,ADS-WS1 bash script,2013-01-22 13:25:00,
2013-01-22 08:30:00,0.5,-10.0,30.27,WNW,285,3.0,-999.0,70,-99.99,,,1.00,ADS-WS1 bash script,2013-01-22 13:30:00,
2013-01-22 08:40:00,0.9,-9.0,30.27,WNW,290,2.0,-999.0,70,-99.99,,,1.00,ADS-WS1 bash script,2013-01-22 13:40:00,
2013-01-22 08:45:00,0.9,-10.0,30.28,WNW,286,7.0,-999.0,69,-99.99,,,1.00,ADS-WS1 bash script,2013-01-22 13:45:00,
2013-01-22 08:50:00,1.0,-10.0,30.28,WNW,290,6.0,-999.0,69,-99.99,,,1.00,ADS-WS1 bash script,2013-01-22 13:50:00,
2013-01-22 08:55:00,1.0,-9.0,30.29,West,268,5.0,-999.0,70,-99.99,,,1.00,ADS-WS1 bash script,2013-01-22 13:55:00,
2013-01-22 09:00:00,1.6,-9.0,30.28,WSW,242,3.0,-999.0,68,-99.99,,,1.00,ADS-WS1 bash script,2013-01-22 14:00:00,
2013-01-22 09:05:00,2.1,-9.0,30.28,West,275,4.0,-999.0,69,-99.99,,,1.00,ADS-WS1 bash script,2013-01-22 14:05:00,
2013-01-22 09:10:00,2.3,-9.0,30.28,NW,306,3.0,-999.0,67,-99.99,,,1.00,ADS-WS1 bash script,2013-01-22 14:10:00,
2013-01-22 09:15:00,2.8,-9.0,30.28,West,280,5.0,-999.0,66,-99.99,,,1.00,ADS-WS1 bash script,2013-01-22 14:15:00,
2013-01-22 09:20:00,3.0,-9.0,30.28,NW,306,6.0,-999.0,66,-99.99,,,1.00,ADS-WS1 bash script,2013-01-22 14:20:00,
2013-01-22 09:25:00,3.2,-9.0,30.28,WSW,239,2.0,-999.0,65,-99.99,,,1.00,ADS-WS1 bash script,2013-01-22 14:25:00,
2013-01-22 09:30:00,3.6,-8.0,30.28,West,268,5.0,-999.0,66,-99.99,,,1.00,ADS-WS1 bash script,2013-01-22 14:30:00,
2013-01-22 09:35:00,3.6,-8.0,30.28,West,268,4.0,-999.0,65,-99.99,,,1.00,ADS-WS1 bash script,2013-01-22 14:35:00,
2013-01-22 09:40:00,3.6,-8.0,30.28,West,268,4.0,-999.0,65,-99.99,,,1.00,ADS-WS1 bash script,2013-01-22 14:40:00,
2013-01-22 09:45:00,3.7,-8.0,30.28,West,261,2.0,-999.0,65,-99.99,,,1.00,ADS-WS1 bash script,2013-01-22 14:45:00,
2013-01-22 09:50:00,3.7,-8.0,30.28,West,279,4.0,-999.0,64,-99.99,,,1.00,ADS-WS1 bash script,2013-01-22 14:50:00,
2013-01-22 09:55:00,3.9,-8.0,30.28,WSW,248,2.0,-999.0,64,-99.99,,,1.00,ADS-WS1 bash script,2013-01-22 14:55:00,
2013-01-22 10:00:00,4.3,-9.0,30.28,WNW,299,5.0,-999.0,63,-99.99,,,1.00,ADS-WS1 bash script,2013-01-22 15:00:00,
2013-01-22 10:05:00,4.6,-7.0,30.29,WNW,303,2.0,-999.0,64,-99.99,,,1.00,ADS-WS1 bash script,2013-01-22 15:05:00,
2013-01-22 10:10:00,5.0,-9.0,30.29,WSW,256,4.0,-999.0,60,-99.99,,,1.00,ADS-WS1 bash script,2013-01-22 15:10:00,
2013-01-22 10:15:00,5.4,-9.0,30.29,WNW,283,7.0,-999.0,61,-99.99,,,1.00,ADS-WS1 bash script,2013-01-22 15:15:00,
2013-01-22 10:20:00,5.5,-8.0,30.29,West,271,6.0,-999.0,59,-99.99,,,1.00,ADS-WS1 bash script,2013-01-22 15:20:00,
2013-01-22 10:25:00,5.9,-8.0,30.28,WNW,296,6.0,-999.0,59,-99.99,,,1.00,ADS-WS1 bash script,2013-01-22 15:25:00,
2013-01-22 10:30:00,6.3,-8.0,30.29,WNW,282,4.0,-999.0,59,-99.99,,,1.00,ADS-WS1 bash script,2013-01-22 15:30:00,
2013-01-22 10:35:00,7.0,-8.0,30.29,NW,317,8.0,-999.0,56,-99.99,,,1.00,ADS-WS1 bash script,2013-01-22 15:35:00,
2013-01-22 10:40:00,7.2,-9.0,30.29,WNW,282,7.0,-999.0,55,-99.99,,,1.00,ADS-WS1 bash script,2013-01-22 15:40:00,
2013-01-22 10:45:00,7.2,-9.0,30.30,NW,319,6.0,-999.0,53,-99.99,,,1.00,ADS-WS1 bash script,2013-01-22 15:45:00,
2013-01-22 10:50:00,7.2,-9.0,30.29,WNW,299,8.0,-999.0,54,-99.99,,,1.00,ADS-WS1 bash script,2013-01-22 15:50:00,
2013-01-22 10:55:00,7.3,-9.0,30.29,WNW,292,4.0,-999.0,55,-99.99,,,1.00,ADS-WS1 bash script,2013-01-22 15:55:00,
2013-01-22 11:05:00,7.5,-8.0,30.29,NNE,21,4.0,-999.0,53,-99.99,,,1.00,ADS-WS1 bash script,2013-01-22 16:05:00,
2013-01-22 11:10:00,8.1,-8.0,30.29,NW,313,8.0,-999.0,55,-99.99,,,1.00,ADS-WS1 bash script,2013-01-22 16:10:00,
2013-01-22 11:15:00,8.4,-8.0,30.30,NW,313,8.0,-999.0,53,-99.99,,,1.00,ADS-WS1 bash script,2013-01-22 16:15:00,
2013-01-22 11:20:00,8.6,-7.0,30.29,NW,313,6.0,-999.0,53,-99.99,,,1.00,ADS-WS1 bash script,2013-01-22 16:20:00,
2013-01-22 11:25:00,8.8,-8.0,30.29,NW,306,7.0,-999.0,51,-99.99,,,1.00,ADS-WS1 bash script,2013-01-22 16:25:00,
2013-01-22 11:30:00,8.8,-8.0,30.28,NNW,331,5.0,-999.0,51,-99.99,,,1.00,ADS-WS1 bash script,2013-01-22 16:30:00,
2013-01-22 11:35:00,9.3,-8.0,30.28,West,268,4.0,-999.0,52,-99.99,,,1.00,ADS-WS1 bash script,2013-01-22 16:35:00,
2013-01-22 11:45:00,9.8,-7.0,30.27,NW,313,10.0,-999.0,52,-99.99,,,1.00,ADS-WS1 bash script,2013-01-22 16:45:00,
2013-01-22 11:50:00,9.8,-8.0,30.27,SW,224,4.0,-999.0,50,-99.99,,,1.00,ADS-WS1 bash script,2013-01-22 16:50:00,
2013-01-22 11:55:00,9.7,-7.0,30.27,NNW,335,8.0,-999.0,51,-99.99,,,1.00,ADS-WS1 bash script,2013-01-22 16:55:00,
2013-01-22 12:00:00,9.1,-8.0,30.28,NW,313,10.0,-999.0,51,-99.99,,,1.00,ADS-WS1 bash script,2013-01-22 17:00:00,
2013-01-22 12:05:00,9.1,-8.0,30.27,WNW,286,9.0,-999.0,52,-99.99,,,1.00,ADS-WS1 bash script,2013-01-22 17:05:00,
2013-01-22 12:15:00,9.1,-7.0,30.27,NW,306,4.0,-999.0,53,-99.99,,,1.00,ADS-WS1 bash script,2013-01-22 17:15:00,
2013-01-22 12:25:00,9.5,-7.0,30.27,WNW,290,4.0,-999.0,52,-99.99,,,1.00,ADS-WS1 bash script,2013-01-22 17:25:00,
2013-01-22 12:30:00,9.7,-7.0,30.26,North,0,3.0,-999.0,52,-99.99,,,1.00,ADS-WS1 bash script,2013-01-22 17:30:00,
2013-01-22 12:35:00,10.0,-6.0,30.27,West,268,16.0,-999.0,53,-99.99,,,1.00,ADS-WS1 bash script,2013-01-22 17:35:00,
2013-01-22 12:40:00,9.8,-7.0,30.26,NW,319,8.0,-999.0,52,-99.99,,,1.00,ADS-WS1 bash script,2013-01-22 17:40:00,
2013-01-22 12:45:00,10.4,-6.0,30.26,NW,313,7.0,-999.0,54,-99.99,,,1.00,ADS-WS1 bash script,2013-01-22 17:45:00,
2013-01-22 12:50:00,10.6,-5.0,30.26,NW,313,3.0,-999.0,55,-99.99,,,1.00,ADS-WS1 bash script,2013-01-22 17:50:00,
2013-01-22 13:00:00,10.2,-7.0,30.26,NW,306,5.0,-999.0,52,-99.99,,,1.00,ADS-WS1 bash script,2013-01-22 18:00:00,
2013-01-22 13:05:00,10.2,-6.0,30.25,West,278,5.0,-999.0,55,-99.99,,,1.00,ADS-WS1 bash script,2013-01-22 18:05:00,
2013-01-22 13:10:00,10.0,-6.0,30.25,WNW,302,7.0,-999.0,55,-99.99,,,1.00,ADS-WS1 bash script,2013-01-22 18:10:00,
2013-01-22 13:15:00,9.8,-6.0,30.25,NNE,14,6.0,-999.0,53,-99.99,,,1.00,ADS-WS1 bash script,2013-01-22 18:15:00,
2013-01-22 13:25:00,10.0,-6.0,30.25,West,279,5.0,-999.0,55,-99.99,,,1.00,ADS-WS1 bash script,2013-01-22 18:25:00,
2013-01-22 13:30:00,10.4,-5.0,30.24,NW,309,2.0,-999.0,56,-99.99,,,1.00,ADS-WS1 bash script,2013-01-22 18:30:00,
2013-01-22 13:40:00,10.4,-5.0,30.25,WNW,299,10.0,-999.0,57,-99.99,,,1.00,ADS-WS1 bash script,2013-01-22 18:40:00,
2013-01-22 13:50:00,9.8,-5.0,30.24,West,279,6.0,-999.0,58,-99.99,,,1.00,ADS-WS1 bash script,2013-01-22 18:50:00,
2013-01-22 13:55:00,9.8,-4.0,30.24,WNW,296,4.0,-999.0,61,-99.99,,,1.00,ADS-WS1 bash script,2013-01-22 18:55:00,
2013-01-22 14:00:00,9.8,-4.0,30.24,NW,313,3.0,-999.0,61,-99.99,,,1.00,ADS-WS1 bash script,2013-01-22 19:00:00,
2013-01-22 14:05:00,10.0,-4.0,30.25,WNW,293,6.0,-999.0,60,-99.99,,,1.00,ADS-WS1 bash script,2013-01-22 19:05:00,
2013-01-22 14:15:00,10.7,-3.0,30.24,NW,313,3.0,-999.0,59,-99.99,,,1.00,ADS-WS1 bash script,2013-01-22 19:15:00,
2013-01-22 14:20:00,10.7,-3.0,30.24,West,268,6.0,-999.0,59,-99.99,,,1.00,ADS-WS1 bash script,2013-01-22 19:20:00,
2013-01-22 14:25:00,10.7,-4.0,30.25,West,279,12.0,-999.0,58,-99.99,,,1.00,ADS-WS1 bash script,2013-01-22 19:25:00,
2013-01-22 14:30:00,10.6,-4.0,30.24,WNW,299,4.0,-999.0,57,-99.99,,,1.00,ADS-WS1 bash script,2013-01-22 19:30:00,
2013-01-22 14:40:00,10.9,-3.0,30.25,WNW,300,5.0,-999.0,61,-99.99,,,1.00,ADS-WS1 bash script,2013-01-22 19:40:00,
2013-01-22 14:45:00,10.9,-4.0,30.25,NW,309,4.0,-999.0,58,-99.99,,,1.00,ADS-WS1 bash script,2013-01-22 19:45:00,
2013-01-22 14:50:00,10.7,-4.0,30.24,WNW,296,8.0,-999.0,58,-99.99,,,1.00,ADS-WS1 bash script,2013-01-22 19:50:00,
2013-01-22 14:55:00,10.9,-4.0,30.24,NW,324,5.0,-999.0,57,-99.99,,,1.00,ADS-WS1 bash script,2013-01-22 19:55:00,
2013-01-22 15:00:00,11.8,-4.0,30.25,West,268,5.0,-999.0,55,-99.99,,,1.00,ADS-WS1 bash script,2013-01-22 20:00:00,
2013-01-22 15:05:00,12.0,-4.0,30.24,West,280,7.0,-999.0,55,-99.99,,,1.00,ADS-WS1 bash script,2013-01-22 20:05:00,
2013-01-22 15:10:00,12.4,-4.0,30.24,WNW,285,10.0,-999.0,54,-99.99,,,2.00,ADS-WS1 bash script,2013-01-22 20:10:00,
2013-01-22 15:15:00,12.5,-4.0,30.24,NW,306,11.0,-999.0,55,-99.99,,,2.00,ADS-WS1 bash script,2013-01-22 20:15:00,
2013-01-22 15:20:00,12.7,-3.0,30.24,WNW,285,9.0,-999.0,54,-99.99,,,2.00,ADS-WS1 bash script,2013-01-22 20:20:00,
2013-01-22 15:25:00,13.3,-3.0,30.24,West,268,7.0,-999.0,53,-99.99,,,2.00,ADS-WS1 bash script,2013-01-22 20:25:00,
2013-01-22 15:30:00,13.4,-3.0,30.24,West,268,6.0,-999.0,53,-99.99,,,0.00,ADS-WS1 bash script,2013-01-22 20:30:00,
2013-01-22 15:40:00,13.4,-4.0,30.23,West,279,7.0,-999.0,52,-99.99,,,0.00,ADS-WS1 bash script,2013-01-22 20:40:00,
2013-01-22 15:45:00,13.6,-2.0,30.24,WNW,302,8.0,-999.0,53,-99.99,,,0.00,ADS-WS1 bash script,2013-01-22 20:45:00,
2013-01-22 15:50:00,14.0,-3.0,30.23,WNW,283,11.0,-999.0,51,-99.99,,,0.00,ADS-WS1 bash script,2013-01-22 20:50:00,
2013-01-22 15:55:00,13.8,-3.0,30.24,WNW,283,9.0,-999.0,51,-99.99,,,0.00,ADS-WS1 bash script,2013-01-22 20:55:00,
2013-01-22 16:00:00,14.0,-2.0,30.23,West,276,8.0,-999.0,53,-99.99,,,0.00,ADS-WS1 bash script,2013-01-22 21:00:00,
2013-01-22 16:05:00,13.6,-2.0,30.22,WNW,292,6.0,-999.0,53,-99.99,,,0.00,ADS-WS1 bash script,2013-01-22 21:05:00,
2013-01-22 16:10:00,13.4,-3.0,30.23,West,278,10.0,-999.0,53,-99.99,,,0.00,ADS-WS1 bash script,2013-01-22 21:10:00,
2013-01-22 16:15:00,13.3,-3.0,30.23,WNW,286,7.0,-999.0,54,-99.99,,,0.00,ADS-WS1 bash script,2013-01-22 21:15:00,
2013-01-22 16:25:00,13.8,-2.0,30.22,West,279,4.0,-999.0,54,-99.99,,,0.00,ADS-WS1 bash script,2013-01-22 21:25:00,
2013-01-22 16:30:00,13.6,-2.0,30.23,West,263,7.0,-999.0,55,-99.99,,,0.00,ADS-WS1 bash script,2013-01-22 21:30:00,
2013-01-22 16:35:00,13.3,-3.0,30.23,West,259,8.0,-999.0,54,-99.99,,,0.00,ADS-WS1 bash script,2013-01-22 21:35:00,
2013-01-22 16:45:00,12.9,-2.0,30.23,NW,317,5.0,-999.0,56,-99.99,,,0.00,ADS-WS1 bash script,2013-01-22 21:45:00,
2013-01-22 16:50:00,12.5,-3.0,30.24,NW,313,4.0,-999.0,58,-99.99,,,0.00,ADS-WS1 bash script,2013-01-22 21:50:00,
2013-01-22 16:55:00,12.4,-2.0,30.23,NW,313,7.0,-999.0,59,-99.99,,,0.00,ADS-WS1 bash script,2013-01-22 21:55:00,
2013-01-22 17:05:00,11.8,0.0,30.24,WNW,292,6.0,-999.0,66,-99.99,,,0.00,ADS-WS1 bash script,2013-01-22 22:05:00,
2013-01-22 17:10:00,11.6,1.0,30.24,NW,313,3.0,-999.0,67,-99.99,,,0.00,ADS-WS1 bash script,2013-01-22 22:10:00,
2013-01-22 17:20:00,11.6,1.0,30.25,WNW,290,3.0,-999.0,69,-99.99,,,0.00,ADS-WS1 bash script,2013-01-22 22:20:00,
2013-01-22 17:25:00,11.5,1.0,30.24,West,268,6.0,-999.0,68,-99.99,,,0.00,ADS-WS1 bash script,2013-01-22 22:25:00,
2013-01-22 17:30:00,11.5,1.0,30.24,NW,313,6.0,-999.0,68,-99.99,,,0.00,ADS-WS1 bash script,2013-01-22 22:30:00,
2013-01-22 17:35:00,11.3,0.0,30.24,NW,313,5.0,-999.0,67,-99.99,,,0.00,ADS-WS1 bash script,2013-01-22 22:35:00,
2013-01-22 17:40:00,11.5,0.0,30.25,WNW,283,8.0,-999.0,66,-99.99,,,0.00,ADS-WS1 bash script,2013-01-22 22:40:00,
2013-01-22 17:50:00,11.1,-2.0,30.25,West,268,7.0,-999.0,63,-99.99,,,0.00,ADS-WS1 bash script,2013-01-22 22:50:00,
2013-01-22 17:55:00,11.1,-2.0,30.25,West,268,3.0,-999.0,63,-99.99,,,0.00,ADS-WS1 bash script,2013-01-22 22:55:00,
2013-01-22 18:00:00,11.1,-2.0,30.25,West,268,5.0,-999.0,63,-99.99,,,0.00,ADS-WS1 bash script,2013-01-22 23:00:00,
2013-01-22 18:05:00,11.1,-3.0,30.25,NW,313,3.0,-999.0,61,-99.99,,,0.00,ADS-WS1 bash script,2013-01-22 23:05:00,
2013-01-22 18:10:00,10.9,-2.0,30.25,WNW,290,3.0,-999.0,62,-99.99,,,0.00,ADS-WS1 bash script,2013-01-22 23:10:00,
2013-01-22 18:20:00,10.9,-1.0,30.25,WNW,290,6.0,-999.0,64,-99.99,,,0.00,ADS-WS1 bash script,2013-01-22 23:20:00,
2013-01-22 18:25:00,11.1,-2.0,30.26,NW,313,4.0,-999.0,63,-99.99,,,0.00,ADS-WS1 bash script,2013-01-22 23:25:00,
2013-01-22 18:30:00,11.3,-2.0,30.26,NW,313,6.0,-999.0,63,-99.99,,,0.00,ADS-WS1 bash script,2013-01-22 23:30:00,
2013-01-22 18:35:00,11.1,-2.0,30.26,NW,313,6.0,-999.0,63,-99.99,,,0.00,ADS-WS1 bash script,2013-01-22 23:35:00,
2013-01-22 18:45:00,11.1,-2.0,30.26,NNW,335,2.0,-999.0,63,-99.99,,,0.00,ADS-WS1 bash script,2013-01-22 23:45:00,
2013-01-22 18:50:00,10.9,-1.0,30.26,NW,313,2.0,-999.0,65,-99.99,,,0.00,ADS-WS1 bash script,2013-01-22 23:50:00,
2013-01-22 18:55:00,10.9,-1.0,30.26,NW,324,5.0,-999.0,65,-99.99,,,0.00,ADS-WS1 bash script,2013-01-22 23:55:00,
2013-01-22 19:00:00,10.9,-1.0,30.27,NW,313,4.0,-999.0,66,-99.99,,,0.00,ADS-WS1 bash script,2013-01-23 00:00:00,
2013-01-22 19:10:00,10.6,0.0,30.27,NW,306,6.0,-999.0,68,-99.99,,,0.00,ADS-WS1 bash script,2013-01-23 00:10:00,
2013-01-22 19:15:00,10.4,-1.0,30.26,NW,306,5.0,-999.0,67,-99.99,,,0.00,ADS-WS1 bash script,2013-01-23 00:15:00,
2013-01-22 19:20:00,10.2,-1.0,30.26,WNW,296,2.0,-999.0,69,-99.99,,,0.00,ADS-WS1 bash script,2013-01-23 00:20:00,
2013-01-22 19:25:00,10.0,-1.0,30.26,West,272,4.0,-999.0,69,-99.99,,,0.00,ADS-WS1 bash script,2013-01-23 00:25:00,
2013-01-22 19:35:00,10.2,0.0,30.27,SW,232,2.0,-999.0,70,-99.99,,,0.00,ADS-WS1 bash script,2013-01-23 00:35:00,
2013-01-22 19:40:00,10.2,1.0,30.27,WNW,300,6.0,-999.0,73,-99.99,,,0.00,ADS-WS1 bash script,2013-01-23 00:40:00,
2013-01-22 19:50:00,10.0,1.0,30.27,West,268,3.0,-999.0,75,-99.99,,,0.00,ADS-WS1 bash script,2013-01-23 00:50:00,
2013-01-22 19:55:00,10.0,1.0,30.27,NW,313,5.0,-999.0,75,-99.99,,,0.00,ADS-WS1 bash script,2013-01-23 00:55:00,
2013-01-22 20:00:00,10.0,2.0,30.27,WSW,249,4.0,-999.0,76,-99.99,,,0.00,ADS-WS1 bash script,2013-01-23 01:00:00,
2013-01-22 20:05:00,10.0,2.0,30.26,NW,306,2.0,-999.0,76,-99.99,,,0.00,ADS-WS1 bash script,2013-01-23 01:05:00,
2013-01-22 20:10:00,10.2,1.0,30.27,NW,313,2.0,-999.0,75,-99.99,,,0.00,ADS-WS1 bash script,2013-01-23 01:10:00,
2013-01-22 20:20:00,10.4,2.0,30.27,NW,306,0.0,-999.0,77,-99.99,,,0.00,ADS-WS1 bash script,2013-01-23 01:20:00,
2013-01-22 20:25:00,10.4,2.0,30.26,WNW,287,3.0,-999.0,77,-99.99,,,0.00,ADS-WS1 bash script,2013-01-23 01:25:00,
2013-01-22 20:30:00,10.4,3.0,30.27,West,268,2.0,-999.0,78,-99.99,,,0.00,ADS-WS1 bash script,2013-01-23 01:30:00,
2013-01-22 20:40:00,10.4,2.0,30.26,NW,313,4.0,-999.0,76,-99.99,,,0.00,ADS-WS1 bash script,2013-01-23 01:40:00,
2013-01-22 20:50:00,10.4,0.0,30.27,WSW,238,6.0,-999.0,70,-99.99,,,0.00,ADS-WS1 bash script,2013-01-23 01:50:00,
2013-01-22 20:55:00,10.2,-1.0,30.26,WNW,296,3.0,-999.0,69,-99.99,,,0.00,ADS-WS1 bash script,2013-01-23 01:55:00,
2013-01-22 21:00:00,10.0,0.0,30.27,WSW,256,6.0,-999.0,70,-99.99,,,0.00,ADS-WS1 bash script,2013-01-23 02:00:00,
2013-01-22 21:05:00,10.0,0.0,30.27,NW,306,3.0,-999.0,70,-99.99,,,0.00,ADS-WS1 bash script,2013-01-23 02:05:00,
2013-01-22 21:10:00,9.8,-1.0,30.27,WNW,303,3.0,-999.0,69,-99.99,,,0.00,ADS-WS1 bash script,2013-01-23 02:10:00,
2013-01-22 21:15:00,9.8,0.0,30.27,WNW,299,5.0,-999.0,70,-99.99,,,0.00,ADS-WS1 bash script,2013-01-23 02:15:00,
2013-01-22 21:20:00,9.8,0.0,30.27,WNW,300,9.0,-999.0,70,-99.99,,,0.00,ADS-WS1 bash script,2013-01-23 02:20:00,
2013-01-22 21:25:00,9.7,0.0,30.27,WNW,282,5.0,-999.0,70,-99.99,,,0.00,ADS-WS1 bash script,2013-01-23 02:25:00,
2013-01-22 21:30:00,9.7,0.0,30.27,WNW,289,3.0,-999.0,71,-99.99,,,0.00,ADS-WS1 bash script,2013-01-23 02:30:00,
2013-01-22 21:35:00,9.7,0.0,30.27,NW,304,3.0,-999.0,71,-99.99,,,0.00,ADS-WS1 bash script,2013-01-23 02:35:00,
2013-01-22 21:40:00,9.7,1.0,30.27,West,263,4.0,-999.0,73,-99.99,,,0.00,ADS-WS1 bash script,2013-01-23 02:40:00,
2013-01-22 21:50:00,9.7,1.0,30.27,WSW,237,4.0,-999.0,74,-99.99,,,0.00,ADS-WS1 bash script,2013-01-23 02:50:00,
2013-01-22 21:55:00,9.7,1.0,30.27,NW,313,9.0,-999.0,73,-99.99,,,0.00,ADS-WS1 bash script,2013-01-23 02:55:00,
2013-01-22 22:00:00,9.5,1.0,30.26,West,265,5.0,-999.0,75,-99.99,,,0.00,ADS-WS1 bash script,2013-01-23 03:00:00,
2013-01-22 22:05:00,9.5,1.0,30.26,NW,307,5.0,-999.0,74,-99.99,,,0.00,ADS-WS1 bash script,2013-01-23 03:05:00,
2013-01-22 22:10:00,9.5,2.0,30.27,West,268,3.0,-999.0,76,-99.99,,,0.00,ADS-WS1 bash script,2013-01-23 03:10:00,
2013-01-22 22:20:00,9.3,1.0,30.27,West,268,2.0,-999.0,76,-99.99,,,0.00,ADS-WS1 bash script,2013-01-23 03:20:00,
2013-01-22 22:25:00,9.3,1.0,30.26,WSW,245,2.0,-999.0,76,-99.99,,,0.00,ADS-WS1 bash script,2013-01-23 03:25:00,
2013-01-22 22:30:00,9.3,1.0,30.27,West,268,3.0,-999.0,76,-99.99,,,0.00,ADS-WS1 bash script,2013-01-23 03:30:00,
2013-01-22 22:35:00,9.3,1.0,30.27,West,268,3.0,-999.0,76,-99.99,,,0.00,ADS-WS1 bash script,2013-01-23 03:35:00,
2013-01-22 22:40:00,9.3,0.0,30.27,West,268,2.0,-999.0,75,-99.99,,,0.00,ADS-WS1 bash script,2013-01-23 03:40:00,
2013-01-22 22:50:00,9.1,0.0,30.27,West,268,6.0,-999.0,75,-99.99,,,0.00,ADS-WS1 bash script,2013-01-23 03:50:00,
2013-01-22 22:55:00,9.1,0.0,30.27,WSW,245,3.0,-999.0,74,-99.99,,,0.00,ADS-WS1 bash script,2013-01-23 03:55:00,
2013-01-22 23:00:00,9.1,0.0,30.27,NW,313,7.0,-999.0,75,-99.99,,,0.00,ADS-WS1 bash script,2013-01-23 04:00:00,
2013-01-22 23:05:00,9.0,0.0,30.27,NW,313,2.0,-999.0,74,-99.99,,,0.00,ADS-WS1 bash script,2013-01-23 04:05:00,
2013-01-22 23:10:00,9.0,0.0,30.27,West,278,2.0,-999.0,75,-99.99,,,0.00,ADS-WS1 bash script,2013-01-23 04:10:00,
2013-01-22 23:15:00,9.0,0.0,30.27,WNW,290,2.0,-999.0,75,-99.99,,,0.00,ADS-WS1 bash script,2013-01-23 04:15:00,
2013-01-22 23:20:00,9.0,0.0,30.27,WNW,290,3.0,-999.0,75,-99.99,,,0.00,ADS-WS1 bash script,2013-01-23 04:20:00,
2013-01-22 23:25:00,9.0,0.0,30.28,WNW,290,4.0,-999.0,75,-99.99,,,0.00,ADS-WS1 bash script,2013-01-23 04:25:00,
2013-01-22 23:30:00,8.8,1.0,30.27,WNW,283,4.0,-999.0,76,-99.99,,,0.00,ADS-WS1 bash script,2013-01-23 04:30:00,
2013-01-22 23:35:00,8.8,0.0,30.27,WSW,238,2.0,-999.0,75,-99.99,,,0.00,ADS-WS1 bash script,2013-01-23 04:35:00,
2013-01-22 23:40:00,8.8,0.0,30.27,West,279,2.0,-999.0,74,-99.99,,,0.00,ADS-WS1 bash script,2013-01-23 04:40:00,
2013-01-22 23:45:00,8.8,0.0,30.28,WNW,283,4.0,-999.0,75,-99.99,,,0.00,ADS-WS1 bash script,2013-01-23 04:45:00,
2013-01-22 23:55:00,8.8,0.0,30.28,West,268,2.0,-999.0,74,-99.99,,,0.00,ADS-WS1 bash script,2013-01-23 04:55:00,